Weather Roundup
Issued by NWS Springfield, MO

Home | Current Version | Previous Version | Text Only | Print | Product List | Glossary On
Versions: 1 2 3 4 5 6 7 8 9 10 11 12 13 14 15 16 17 18 19 20 21 22 23 24 25 26 27 28 29 30 31 32 33 34 35 36 37 38 39 40 41 42 43 44 45 46 47 48 49 50
000
NZUS99 KSGF 271607
HRRSGF

HOURLY WEATHER
NATIONAL WEATHER SERVICE SPRINGFIELD MO
1000 AM CST FRI FEB 27 2015

......SGF CWA......

CITY           SKY/WX    TMP DP  RH WIND       PRES   REMARKS
SPRINGFIELD    CLOUDY    13   1  59 NW3       30.58R
JOPLIN         CLOUDY    13   1  59 NE12      30.60F WCI  -1
WEST PLAINS    SUNNY     13   0  56 NE9       30.57S WCI   1
ROLLA          SUNNY     11  -2  56 N7        30.58F WCI   0
OSAGE BEACH    SUNNY     12   0  57 CALM      30.64R
BRANSON        PTSUNNY   18   3  53 E6        30.58R WCI   9

......SURROUNDING SGF CWA......

CITY           SKY/WX    TMP DP  RH WIND       PRES   REMARKS
CHANUTE        CLOUDY    13   0  56 NE8       30.64R WCI   2
PARSONS        PTSUNNY   15  -1  49 NE7       30.64R WCI   5
COFFEYVILLE    CLOUDY    14   2  58 NE12      30.64R WCI   0
EMPORIA        CLOUDY    10   1  67 NE8       30.61S WCI  -2
GROVE OK       CLOUDY    19   5  53 NE6       30.61S WCI  11
ROGERS AR      CLOUDY    15   2  56 NE9       30.53F WCI   3
SILOAM SPRINGS PTSUNNY   16   0  48 NE8       30.55R WCI   5
HARRISON AR    SUNNY     16   4  59 N7        30.54S WCI   6
NEAR YELLVILLE SUNNY     18   1  49 NE8       30.59F WCI   7

......KANSAS AND MISSOURI......

CITY           SKY/WX    TMP DP  RH WIND       PRES   REMARKS
KANSAS CTY INT CLOUDY     8  -1  66 VRB3      30.64S
DOWNTOWN KC    SUNNY     11  -2  56 W6        30.68S WCI   1
COLUMBIA       SUNNY     11  -1  58 NE6       30.64F WCI   1
SEDALIA        FLURRIES  12  -1  56 N6        30.67R WCI   3
ST JOSEPH      SUNNY      8  -1  66 CALM      30.69R
ST LOUIS       MOSUNNY    9  -2  61 VRB7      30.67F WCI  -2
SPIRIT OF STL  SUNNY     10  -3  55 NW3       30.68F
KIRKSVILLE     SUNNY      7  -3  64 N7        30.64F WCI  -5
WICHITA        CLOUDY    13  -1  54 E8        30.59S WCI   2
TOPEKA         MOSUNNY   11   1  64 E3        30.66F
OLATHE         SUNNY     11  -2  56 E9        30.62F WCI  -2

......TENNESSEE......

CITY           SKY/WX    TMP DP  RH WIND       PRES   REMARKS
MEMPHIS        MOSUNNY   27  13  55 NE10      30.59R WCI  17
NASHVILLE      MOSUNNY   27   9  46 N12       30.57R WCI  17

......ARKANSAS.......

CITY           SKY/WX    TMP DP  RH WIND       PRES   REMARKS
FAYETTEVILLE   PTSUNNY   16   4  59 NE7       30.54R WCI   6
FT SMITH       CLOUDY    23   4  44 E13       30.57F WCI  11
LITTLE ROCK    MOSUNNY   25   9  50 E12       30.61F WCI  14

......OKLAHOMA.......

CITY           SKY/WX    TMP DP  RH WIND       PRES   REMARKS
TULSA          CLOUDY    18   5  57 N9        30.63R WCI   7
PONCA CITY     CLOUDY    16   0  49 NE9       30.60F WCI   4
MCALESTER      CLOUDY    21   7  54 NE9       30.56R WCI  11
OKLAHOMA CITY  CLOUDY    19   2  47 NE8       30.55S WCI   9

......IOWA............

CITY           SKY/WX    TMP DP  RH WIND       PRES   REMARKS
DES MOINES     MOSUNNY    4  -6  63 NW5       30.64S WCI  -5
QUAD CITIES    SUNNY      2  -7  66 W6        30.66R WCI  -9

......ILLINOIS........

CITY           SKY/WX    TMP DP  RH WIND       PRES   REMARKS
QUINCY         SUNNY      1  -6  72 NW6       30.66F WCI -10
CHICAGO        SUNNY      9  -5  53 W8        30.58R WCI  -3




USA.gov is the U.S. government's official web portal to all federal, state and local government web resources and services.